Temperature
25 24 23 23 21 20 21 22 22 21 21 21 21 20 19 18 19 18 18 19 18 18 18 18 18 18 18 18 18 18 18 18 18 18 18 18 18 18 18 18 18 18 18 18 18 18 18 18 18
25 24 24 23 20 19 21 21 21 21 21 21 21 20 19 18 18 19 19 19 19 19 19 18 18 18 18 18 18 18 18 18 18 18 18 18 18 18 18 18 18 18 18 18 18 18 18 18 18
25 24 24 21 20 20 21 22 21 22 22 22 21 20 19 19 19 19 19 19 19 19 19 18 18 18 18 18 18 18 18 18 18 18 18 18 18 18 18 18 18 18 18 18 18 18 18 18 18
25 25 24 21 22 22 22 22 22 22 22 21 21 20 19 19 20 19 19 19 19 19 19 18 18 18 18 18 18 18 18 18 18 18 18 18 18 18 18 18 18 18 18 18 18 17 17 17 17
26 25 21 21 22 23 23 23 23 22 21 21 20 19 19 19 20 20 19 19 19 19 19 19 18 18 18 18 18 18 18 18 18 18 18 18 18 18 18 18 18 18 18 18 17 17 17 17 17
26 22 20 21 23 23 23 23 22 21 21 21 20 19 19 19 20 19 19 19 19 19 19 19 18 18 18 18 18 18 18 18 18 18 18 18 18 18 18 18 18 18 18 17 17 17 17 17 17
25 21 21 22 22 23 23 23 22 21 21 21 20 19 19 19 19 19 19 19 19 19 19 19 19 18 18 18 18 18 18 18 18 18 18 18 18 18 18 18 18 18 17 17 17 17 17 17 17
27 21 23 22 23 23 23 23 22 22 21 21 21 19 19 19 19 19 19 19 19 19 19 19 19 19 18 18 18 18 18 18 18 18 18 18 18 18 18 18 18 18 17 17 17 17 17 17 17
27 21 22 22 22 23 23 23 23 23 22 22 22 21 21 20 19 19 19 19 19 19 19 19 19 18 18 18 18 18 18 18 18 18 18 18 18 18 18 18 18 18 17 17 17 17 17 17 17
26 22 23 24 23 23 23 23 23 22 22 21 21 21 20 20 20 20 20 19 19 19 19 19 19 19 18 18 18 18 18 18 18 18 18 18 18 18 18 18 18 18 18 17 17 17 17 17 17
25 24 24 25 25 24 24 23 23 22 21 21 21 21 20 20 20 20 20 20 20 19 19 19 19 19 19 19 18 18 18 18 18 18 18 18 18 18 18 18 18 18 18 18 17 17 17 17 17
26 25 26 25 25 25 24 23 23 23 23 23 23 22 21 20 20 20 20 20 20 20 19 19 19 19 19 19 18 18 18 18 18 18 18 18 18 18 18 18 18 18 18 18 17 17 17 18 18
26 25 26 26 26 25 24 23 23 23 23 23 22 22 21 21 21 20 20 20 20 20 19 19 19 19 19 19 18 18 18 18 18 18 18 18 18 18 18 18 18 18 18 18 18 18 18 18 18
26 25 25 25 25 25 24 23 23 23 23 22 22 21 21 21 21 21 20 20 20 20 20 19 19 19 19 19 18 18 18 18 18 18 18 18 18 18 18 18 18 18 18 18 18 18 18 18 18
26 24 24 25 25 24 24 23 23 23 23 22 21 21 21 21 21 21 21 21 20 20 20 20 19 19 19 19 18 18 18 18 18 18 18 18 18 18 18 18 18 18 18 18 18 18 18 18 18
25 23 24 25 24 24 24 23 23 23 23 22 21 21 21 21 21 21 21 21 21 20 20 20 19 19 19 19 18 18 18 18 18 18 18 18 18 18 18 18 18 18 18 18 18 18 18 18 18
23 23 23 24 24 24 23 23 22 23 22 22 22 21 21 21 21 21 21 21 21 21 20 20 19 19 19 19 18 18 18 18 18 18 18 18 18 18 18 18 18 18 18 18 18 18 18 18 18
24 24 24 24 24 24 23 23 22 23 22 22 22 22 22 22 22 22 22 21 21 21 20 20 20 19 19 19 18 18 18 18 18 18 18 18 18 18 18 18 18 18 18 18 17 18 18 18 18
25 24 24 24 25 24 23 23 22 22 22 22 22 22 22 22 22 22 22 21 21 21 20 20 20 19 19 19 19 18 18 18 18 18 18 18 18 18 18 18 18 18 18 17 17 17 18 18 17
25 25 24 25 25 24 23 23 22 22 22 23 22 22 22 22 22 22 22 21 21 21 20 20 20 20 19 19 19 19 18 18 18 18 18 18 18 18 18 18 17 17 17 17 17 17 17 17 17
25 25 25 25 24 24 24 23 22 22 22 23 23 23 23 23 23 22 22 22 21 21 21 20 20 20 19 19 19 18 18 18 18 18 18 18 18 18 17 17 17 17 17 17 17 17 17 17 17
25 26 25 25 23 22 23 22 22 21 21 22 22 23 23 23 23 23 22 22 22 21 21 20 20 20 19 19 19 19 18 18 18 18 18 18 18 18 17 17 17 17 17 17 17 17 17 17 17
26 25 24 24 22 22 22 22 22 21 21 21 22 23 23 23 23 23 23 23 22 22 21 21 20 20 20 19 19 19 19 18 18 18 18 18 18 18 18 17 17 17 17 17 17 17 17 17 17
25 23 22 20 20 22 22 22 22 20 21 22 22 23 23 24 24 23 23 23 22 22 21 21 20 20 20 19 19 19 19 18 18 18 18 18 18 18 18 17 17 17 17 17 17 17 17 17 17
24 22 21 22 21 21 21 22 21 22 22 22 23 24 24 24 24 23 23 23 22 22 21 21 21 20 20 19 19 19 19 18 18 18 18 18 18 18 18 17 17 17 17 17 17 17 17 17 17
23 22 21 22 21 21 21 21 22 23 23 24 24 25 24 24 24 24 24 23 23 22 22 21 21 20 20 20 19 19 19 18 18 18 18 18 18 18 17 17 17 17 17 17 17 17 17 17 17
23 21 21 19 20 21 21 21 22 23 23 23 24 24 24 24 25 24 24 24 23 23 22 22 21 21 20 20 20 19 19 19 18 18 18 18 17 17 17 17 17 17 17 17 17 17 16 16 16
23 19 18 19 20 22 22 22 22 23 23 22 22 23 24 25 25 25 24 24 23 23 22 22 21 21 21 20 20 19 19 19 18 18 18 18 17 17 17 17 17 16 16 16 16 16 16 16 16
22 21 18 17 19 20 22 22 22 22 22 22 22 24 24 25 25 25 25 24 24 23 22 22 21 21 21 20 20 19 19 19 18 18 18 17 17 17 17 17 16 16 16 16 16 16 16 16 16
23 21 19 21 20 18 20 21 23 21 22 22 23 24 24 25 25 25 24 24 23 23 22 22 22 21 21 20 20 19 19 19 18 18 18 17 17 17 17 16 16 16 16 16 16 16 16 15 15
Wind_Speed
7 8 4 2 5 7 5 4 3 4 4 4 7 8 7 5 3 4 1 5 5 4 4 7 8 10 10 11 12 13 14 14 14 15 16 16 16 17 18 18 18 18 19 19 19 19 19 19 18
5 5 2 4 6 5 4 4 5 4 5 6 7 7 7 5 3 6 3 4 6 5 5 6 9 9 10 11 12 12 13 13 14 14 15 15 15 16 17 17 18 18 18 18 18 18 18 18 17
4 2 4 5 5 4 3 2 7 6 5 3 5 6 5 4 4 5 4 7 6 5 5 6 9 9 10 10 11 12 12 12 13 13 13 14 15 15 16 16 17 17 17 17 17 17 16 16 16
3 3 5 7 6 2 5 5 7 7 5 6 5 6 4 3 4 5 8 8 6 4 5 6 9 9 9 10 10 11 11 12 12 12 12 12 13 13 14 15 15 16 16 16 16 15 15 15 14
3 5 7 5 4 4 5 6 4 5 4 5 6 6 4 4 8 10 9 7 6 4 4 6 9 9 9 9 9 10 10 11 11 11 11 11 12 12 12 13 13 14 14 14 14 14 13 13 13
4 5 6 3 4 4 4 4 6 8 7 6 5 5 3 3 7 8 7 6 5 4 4 5 8 8 8 8 9 9 9 9 10 10 10 10 10 10 10 11 12 12 12 12 12 12 12 11 11
5 5 5 4 4 3 3 4 5 7 7 4 4 5 3 3 5 8 7 6 4 4 3 3 4 6 7 7 7 8 8 8 8 9 9 9 9 9 9 9 10 10 10 10 10 11 10 10 10
5 5 4 3 4 3 5 4 4 7 6 5 5 6 5 5 8 8 7 6 4 3 2 2 3 4 4 4 6 6 7 7 7 7 7 8 7 7 7 7 7 8 8 8 8 8 9 9 9
4 5 3 5 6 5 6 5 4 4 6 3 3 4 6 13 11 8 6 4 2 3 1 1 2 2 2 2 4 4 5 5 5 5 5 5 5 5 4 4 5 6 6 6 6 7 7 7 7
5 4 6 5 7 7 7 7 6 5 5 3 6 7 12 13 11 9 8 7 6 5 3 2 2 2 2 1 2 2 3 3 3 4 4 4 3 3 3 3 4 4 4 4 5 5 6 6 5
4 5 4 3 6 9 8 6 4 9 5 6 11 14 14 13 10 9 8 7 7 5 4 4 3 3 2 1 2 2 2 2 2 2 2 2 2 2 3 2 2 3 3 3 4 4 4 4 4
4 2 5 5 6 7 8 7 5 5 6 8 13 16 14 13 11 10 9 7 6 5 5 4 4 3 3 2 2 2 1 1 1 1 1 1 1 0 1 1 1 1 1 2 2 2 3 3 3
4 3 4 7 8 7 7 6 5 2 6 11 13 13 13 12 10 8 7 6 6 6 6 5 5 4 3 3 2 2 2 2 2 2 2 3 2 1 1 1 1 1 0 0 1 1 1 1 1
4 7 7 6 7 4 7 4 4 3 9 12 12 11 11 11 10 7 7 7 7 7 6 5 5 4 4 3 2 2 3 3 3 3 3 4 4 2 1 1 1 2 1 1 1 0 0 0 0
7 9 8 4 4 3 7 2 2 6 10 11 11 10 10 9 8 9 9 8 8 7 6 6 6 5 4 3 3 3 3 3 3 3 3 4 4 4 3 2 2 2 2 2 1 0 0 0 0
6 7 3 1 3 4 6 4 4 8 11 10 10 10 9 8 8 8 8 8 7 6 6 6 6 5 5 3 3 2 3 3 3 3 3 4 5 5 3 2 2 2 1 1 1 0 0 0 0
4 4 3 2 4 5 5 5 4 8 11 10 9 9 9 8 7 6 7 7 7 7 6 5 5 6 5 4 3 2 2 2 2 3 3 4 5 5 4 2 2 2 1 1 1 1 1 1 1
5 4 4 5 5 6 5 5 5 8 10 10 9 9 8 9 9 7 7 6 6 6 5 5 4 5 4 3 2 1 1 0 1 2 3 3 4 4 4 2 2 1 1 1 1 1 1 1 1
7 6 4 4 4 6 5 5 6 9 9 9 9 9 9 9 7 5 6 6 6 5 5 5 5 4 4 2 2 2 1 0 0 1 2 3 3 4 3 2 1 1 1 2 2 1 1 1 1
6 4 2 0 2 5 3 3 4 9 11 11 12 12 11 8 6 6 6 6 7 7 6 5 5 5 4 3 2 2 2 1 1 0 1 2 2 2 3 2 1 1 1 1 1 1 1 1 2
2 6 5 4 3 4 3 4 3 5 6 7 8 10 10 12 11 9 8 8 7 8 8 7 6 5 4 4 3 2 2 1 1 1 1 1 1 1 1 1 1 1 2 2 2 2 3 2 1
3 5 6 6 6 0 2 3 6 5 6 9 10 10 12 11 10 9 9 9 9 9 7 6 6 5 4 5 4 4 3 2 2 1 0 1 1 0 1 1 1 1 1 2 2 2 2 3 2
5 4 5 5 6 3 2 2 8 1 6 11 13 13 13 12 12 12 11 11 9 8 7 6 5 4 4 4 5 4 3 2 1 1 0 1 1 1 0 1 1 1 1 1 1 1 2 2 3
7 8 8 7 5 1 3 4 7 5 9 8 11 13 13 12 11 11 9 8 7 6 6 5 5 4 4 5 4 5 5 4 3 1 1 0 1 1 1 0 0 0 0 1 1 1 2 2 2
7 7 4 5 3 5 2 3 9 8 9 10 10 12 12 11 10 10 10 9 9 8 7 6 6 5 5 5 5 5 5 4 4 3 2 1 0 1 1 1 0 0 0 1 1 1 1 1 1
6 9 9 6 5 5 1 6 8 7 7 7 7 9 10 10 11 11 12 11 10 10 9 8 7 6 5 5 4 4 4 3 2 2 2 2 1 1 0 1 1 1 2 2 2 1 1 1 1
8 4 7 8 4 1 5 7 9 4 2 2 6 8 10 11 12 12 12 12 11 11 10 9 9 7 6 5 4 4 4 4 3 3 2 1 1 1 2 2 2 2 3 3 2 2 2 2 1
6 10 7 7 6 3 5 5 6 7 5 4 6 9 9 9 10 10 11 12 11 10 9 8 8 8 6 6 5 4 4 3 3 3 2 2 2 2 3 3 3 3 3 3 3 3 2 3 2
5 6 6 6 6 7 3 7 7 9 9 8 9 9 10 11 11 11 10 10 10 9 8 8 8 7 6 6 5 5 4 3 3 3 2 2 3 3 3 3 3 3 4 3 4 4 3 4 3
5 8 8 6 4 5 5 8 6 8 8 7 8 7 7 8 9 9 9 10 10 10 9 9 8 8 7 7 6 5 4 4 4 3 3 3 4 3 3 4 4 4 4 4 4 4 4 4 4
Wind_Direction
147 141 139 99 57 51 38 16 71 77 52 50 75 81 84 66 86 130 145 131 124 113 111 107 101 94 90 87 87 89 88 87 88 91 93 93 93 93 93 94 95 96 97 100 101 102 103 104 106
147 144 97 62 74 65 17 8 79 84 129 120 80 75 72 65 68 108 127 136 120 119 115 116 107 99 94 90 90 91 92 91 90 91 92 93 93 93 93 94 95 95 97 99 99 101 103 105 107
151 124 80 68 79 116 128 121 115 113 110 83 78 65 76 101 124 144 154 132 114 114 119 126 113 105 99 94 92 93 94 95 93 93 91 91 92 94 95 96 96 97 98 99 98 100 102 105 107
122 61 55 66 71 110 144 154 135 119 71 53 82 67 66 92 135 138 129 125 117 109 119 128 117 110 104 99 97 97 96 96 96 95 94 93 92 93 96 98 98 98 98 99 98 99 101 103 106
73 75 61 54 48 64 111 143 128 99 78 67 79 81 51 35 99 115 123 124 124 116 121 129 121 115 109 105 101 100 99 99 98 97 96 95 94 93 95 98 99 100 100 99 98 99 100 102 103
58 67 79 82 77 80 98 100 94 91 92 86 82 87 51 87 109 121 118 116 120 120 116 123 123 120 115 111 107 104 102 101 100 100 99 97 95 94 95 98 101 101 101 100 100 100 99 102 104
99 86 109 121 108 111 133 104 108 115 109 106 106 92 82 122 121 118 110 107 104 104 99 93 108 116 119 117 112 109 108 105 103 104 104 103 101 98 97 96 99 100 100 101 101 100 97 101 105
119 94 88 111 134 145 137 110 113 120 111 125 119 131 167 172 129 110 101 100 99 95 87 91 95 96 102 114 120 116 113 110 106 107 106 103 100 99 98 96 99 100 98 99 98 97 96 100 107
94 81 141 173 162 154 144 130 133 103 116 128 105 136 152 137 130 120 115 116 139 157 129 118 111 108 109 125 126 115 111 107 101 100 103 89 73 75 82 93 98 99 98 96 91 91 93 95 100
86 123 195 186 164 147 147 140 139 117 121 95 83 95 124 138 146 152 162 170 181 191 196 185 169 159 152 145 112 93 83 87 82 77 79 79 73 65 71 72 85 91 92 93 87 84 85 83 83
109 151 169 133 136 132 134 135 125 130 161 171 151 145 147 151 159 170 180 183 191 194 197 190 192 189 183 164 137 114 91 94 90 87 93 96 76 54 47 36 34 47 59 59 59 61 70 79 84
102 113 125 131 124 129 140 136 126 163 192 164 153 151 154 163 174 182 186 189 183 186 201 197 190 193 199 188 170 153 149 148 165 194 172 148 131 35 19 3 353 13 37 50 51 59 65 77 97
87 97 85 107 108 114 112 118 133 148 128 130 140 149 162 173 182 190 190 184 179 192 200 195 187 189 193 183 192 176 189 190 198 211 212 192 185 203 264 304 306 304 340 76 59 56 53 56 98
96 87 87 92 96 110 116 101 102 157 135 137 149 162 173 180 182 179 182 189 193 198 198 191 191 191 187 182 191 200 203 201 197 217 218 204 200 206 210 249 276 280 260 223 203 218 312 317 146
86 81 63 63 93 121 110 77 195 160 142 152 165 171 177 185 184 189 192 192 196 197 192 190 193 187 185 186 197 209 214 205 208 222 220 210 208 206 204 207 236 256 255 242 223 235 6 269 185
63 75 95 245 132 135 127 209 216 158 155 169 177 179 184 193 198 198 193 192 189 184 187 196 194 179 181 177 188 200 203 201 215 219 217 215 211 207 197 203 238 252 241 215 210 183 67 325 328
52 125 184 220 180 151 155 215 209 167 169 181 186 190 191 197 208 202 194 190 183 179 179 184 182 171 173 169 173 182 181 192 218 218 217 219 209 202 194 210 234 226 204 226 228 176 178 233 257
179 171 194 208 196 155 177 221 192 178 182 191 194 196 197 200 209 198 189 181 174 171 173 176 169 164 154 139 120 93 84 153 227 223 225 223 214 203 194 208 220 194 174 232 215 194 172 193 207
155 159 197 228 183 157 191 215 203 190 193 198 200 199 204 212 210 187 179 169 160 165 176 181 171 167 148 136 143 147 181 217 233 240 237 227 220 205 190 201 196 182 196 217 197 173 163 175 134
138 148 175 47 138 148 177 240 224 199 204 203 200 201 202 206 198 188 178 172 174 180 190 192 190 181 173 160 157 157 153 172 192 234 263 232 220 211 201 195 199 191 190 198 180 168 164 191 156
167 175 179 162 92 62 91 328 246 228 218 216 213 206 202 202 198 193 187 187 184 191 197 200 196 189 181 163 129 102 77 56 56 30 312 303 246 212 202 204 210 215 197 212 210 193 185 200 205
211 203 161 140 120 31 117 257 275 230 226 224 219 209 207 205 198 193 190 191 195 199 196 194 188 183 177 166 163 165 171 184 206 199 223 341 350 292 193 219 222 219 213 226 229 200 196 189 213
177 113 112 121 119 76 43 163 285 220 232 233 222 213 208 202 196 194 195 197 195 189 185 185 174 175 171 167 167 162 166 175 157 119 64 358 356 357 315 225 218 221 218 213 207 184 186 195 198
120 78 59 54 73 88 229 176 273 233 222 230 217 210 205 197 195 193 190 182 181 175 173 171 168 178 174 167 163 164 167 168 158 160 174 302 348 347 349 19 85 121 196 213 206 183 178 187 184
98 96 49 18 15 250 247 201 248 247 230 220 212 206 198 187 183 184 181 183 181 178 178 174 173 182 176 165 168 175 176 175 183 187 186 188 271 331 322 347 66 73 110 101 118 134 160 172 171
157 137 153 179 210 264 288 234 254 262 260 231 207 191 180 178 179 187 190 187 186 184 181 175 175 178 172 168 172 168 165 168 177 178 167 174 191 244 316 72 73 69 76 86 92 94 103 103 136
132 149 153 131 146 191 275 283 300 304 308 197 178 173 178 182 184 189 189 186 184 184 184 178 174 175 176 174 164 158 157 155 158 158 151 149 146 117 79 78 66 63 68 72 78 77 71 81 83
133 140 106 120 143 222 288 280 256 269 248 218 193 191 191 183 183 187 188 186 184 185 181 173 173 177 176 167 165 162 156 154 149 136 131 125 110 94 86 75 70 65 64 68 75 71 64 74 62
107 96 104 112 145 156 228 267 230 226 223 213 213 205 192 186 186 188 188 182 177 173 169 169 169 164 163 164 159 152 149 146 135 131 131 121 106 103 96 84 74 73 70 70 76 68 65 73 59
148 154 146 148 186 166 174 261 267 232 229 217 222 212 195 187 182 184 180 170 169 171 172 172 170 169 170 164 156 154 147 140 135 134 128 117 107 97 98 95 83 73 70 70 76 75 69 71 64
Height
1490 1490 1491 1493 1498 1512 1519 1514 1509 1510 1512 1513 1512 1514 1517 1521 1524 1530 1527 1526 1527 1527 1528 1529 1529 1529 1528 1528 1528 1527 1526 1526 1525 1525 1525 1525 1526 1526 1527 1527 1527 1528 1529 1530 1531 1532 1534 1535 1537
1491 1492 1494 1495 1509 1528 1525 1515 1513 1512 1514 1514 1515 1517 1519 1522 1523 1525 1526 1527 1528 1529 1530 1530 1531 1531 1531 1531 1531 1530 1530 1529 1529 1529 1529 1529 1529 1530 1530 1531 1531 1532 1533 1534 1535 1536 1538 1539 1540
1492 1493 1496 1500 1515 1526 1523 1515 1513 1514 1515 1515 1517 1519 1522 1524 1525 1526 1528 1529 1530 1531 1532 1533 1533 1533 1533 1533 1533 1533 1533 1533 1532 1532 1532 1533 1533 1534 1534 1534 1535 1536 1536 1537 1538 1540 1541 1542 1543
1493 1495 1498 1509 1518 1516 1514 1514 1514 1514 1516 1517 1519 1522 1525 1527 1528 1528 1529 1530 1532 1533 1534 1535 1535 1536 1536 1536 1536 1536 1536 1536 1536 1536 1536 1536 1537 1537 1538 1538 1539 1539 1540 1541 1542 1543 1544 1545 1546
1494 1496 1507 1519 1518 1514 1513 1514 1515 1516 1518 1520 1521 1525 1528 1529 1530 1530 1531 1533 1534 1535 1536 1537 1538 1538 1538 1538 1539 1539 1539 1539 1539 1539 1539 1540 1540 1541 1541 1542 1542 1543 1544 1545 1545 1547 1548 1549 1550
1496 1499 1519 1527 1520 1516 1516 1516 1517 1518 1520 1522 1524 1526 1530 1532 1532 1533 1534 1535 1536 1537 1538 1539 1540 1540 1541 1541 1541 1541 1541 1541 1542 1542 1542 1543 1543 1544 1544 1545 1546 1546 1547 1548 1549 1550 1551 1552 1553
1498 1506 1519 1521 1521 1519 1518 1518 1519 1520 1522 1524 1526 1528 1531 1533 1534 1535 1536 1537 1538 1540 1540 1541 1542 1542 1543 1543 1544 1544 1544 1544 1545 1545 1545 1546 1546 1547 1547 1548 1549 1549 1550 1551 1552 1553 1554 1555 1555
1497 1506 1517 1520 1521 1520 1518 1519 1521 1522 1524 1526 1527 1529 1531 1534 1535 1537 1538 1539 1540 1541 1542 1543 1544 1544 1545 1545 1546 1546 1547 1547 1547 1548 1548 1548 1549 1549 1550 1551 1551 1552 1553 1554 1555 1555 1556 1557 1558
1498 1512 1522 1519 1519 1518 1517 1520 1522 1523 1525 1527 1528 1529 1531 1534 1536 1538 1539 1541 1542 1543 1544 1545 1546 1546 1547 1547 1548 1548 1549 1549 1549 1550 1550 1551 1551 1552 1552 1553 1554 1555 1555 1556 1557 1558 1558 1559 1560
1499 1515 1514 1510 1511 1513 1517 1519 1521 1524 1526 1527 1529 1531 1533 1535 1537 1538 1540 1541 1543 1544 1545 1546 1547 1548 1549 1549 1550 1550 1551 1551 1551 1552 1552 1553 1554 1554 1555 1555 1556 1557 1557 1558 1559 1560 1560 1561 1562
1500 1508 1506 1508 1509 1512 1517 1520 1522 1524 1527 1527 1528 1530 1533 1536 1538 1539 1541 1543 1544 1546 1547 1548 1548 1549 1550 1551 1552 1552 1553 1553 1553 1554 1554 1555 1556 1556 1557 1557 1558 1558 1559 1560 1561 1561 1562 1562 1563
1502 1504 1505 1508 1511 1514 1517 1520 1523 1524 1525 1526 1528 1530 1533 1536 1538 1540 1542 1544 1546 1547 1548 1549 1550 1551 1552 1552 1553 1554 1554 1555 1555 1555 1556 1556 1557 1557 1558 1558 1559 1560 1560 1561 1562 1562 1563 1564 1564
1502 1506 1508 1510 1513 1516 1519 1521 1523 1525 1526 1528 1530 1533 1535 1537 1539 1542 1544 1545 1547 1548 1549 1550 1551 1552 1553 1553 1554 1555 1555 1556 1556 1557 1557 1557 1558 1559 1559 1560 1560 1561 1561 1562 1563 1563 1564 1564 1564
1505 1507 1511 1514 1516 1519 1521 1524 1525 1526 1527 1529 1532 1534 1536 1538 1540 1542 1544 1545 1547 1548 1549 1550 1551 1552 1553 1554 1555 1556 1556 1557 1557 1557 1558 1558 1559 1559 1560 1560 1561 1561 1562 1562 1563 1563 1564 1564 1564
1506 1511 1516 1518 1518 1521 1523 1528 1526 1526 1529 1531 1533 1535 1537 1539 1541 1542 1544 1546 1547 1548 1550 1551 1552 1553 1554 1555 1555 1556 1557 1557 1557 1558 1558 1559 1559 1559 1560 1560 1561 1562 1562 1563 1563 1563 1564 1564 1564
1510 1519 1527 1521 1520 1522 1527 1534 1526 1527 1529 1531 1533 1535 1537 1539 1541 1543 1544 1546 1547 1549 1550 1551 1552 1553 1554 1555 1555 1556 1557 1557 1557 1558 1558 1559 1559 1559 1560 1560 1561 1562 1562 1562 1563 1563 1563 1563 1563
1522 1531 1530 1524 1519 1521 1526 1530 1525 1527 1529 1531 1533 1535 1537 1539 1541 1542 1544 1546 1547 1548 1549 1550 1551 1552 1554 1554 1555 1556 1556 1557 1557 1558 1558 1558 1559 1559 1560 1560 1561 1561 1561 1562 1562 1562 1562 1563 1563
1528 1529 1528 1526 1519 1521 1526 1527 1524 1526 1528 1530 1532 1534 1536 1537 1539 1541 1543 1545 1547 1548 1549 1550 1551 1552 1553 1554 1555 1555 1556 1556 1557 1557 1557 1558 1558 1559 1559 1559 1560 1560 1560 1561 1561 1561 1561 1561 1562
1514 1522 1526 1522 1516 1520 1525 1526 1524 1524 1527 1529 1530 1532 1534 1535 1538 1540 1542 1544 1546 1547 1548 1549 1550 1551 1552 1553 1554 1555 1555 1556 1556 1557 1557 1557 1557 1558 1558 1558 1559 1559 1559 1559 1560 1560 1560 1560 1560
1513 1521 1523 1519 1516 1520 1525 1526 1522 1523 1523 1524 1526 1529 1531 1534 1536 1538 1540 1542 1544 1545 1547 1548 1549 1550 1552 1553 1553 1554 1554 1555 1555 1556 1556 1556 1557 1557 1557 1557 1558 1558 1558 1558 1558 1558 1558 1558 1558
1514 1518 1520 1521 1520 1521 1526 1530 1525 1522 1522 1524 1525 1526 1528 1531 1533 1536 1538 1540 1542 1544 1546 1547 1548 1549 1551 1552 1552 1553 1553 1554 1554 1555 1555 1555 1556 1556 1556 1556 1557 1557 1557 1556 1556 1556 1556 1556 1557
1517 1509 1512 1518 1528 1537 1532 1547 1529 1523 1522 1521 1521 1523 1525 1527 1530 1533 1536 1538 1540 1542 1545 1546 1547 1548 1549 1550 1551 1551 1552 1553 1553 1554 1554 1555 1555 1555 1555 1555 1555 1555 1555 1555 1555 1554 1554 1555 1554
1508 1506 1512 1519 1529 1539 1537 1545 1535 1524 1524 1518 1516 1518 1520 1523 1526 1529 1533 1535 1538 1541 1543 1545 1546 1547 1548 1549 1549 1550 1551 1551 1552 1552 1553 1553 1554 1554 1554 1554 1553 1553 1553 1553 1553 1552 1552 1552 1552
1504 1512 1521 1530 1538 1551 1540 1545 1540 1526 1517 1511 1510 1512 1515 1519 1523 1526 1530 1534 1536 1539 1541 1543 1544 1545 1546 1547 1548 1549 1549 1550 1550 1551 1551 1552 1552 1552 1552 1552 1552 1552 1551 1551 1551 1550 1550 1550 1549
1506 1525 1548 1552 1560 1555 1539 1541 1535 1511 1506 1505 1505 1508 1511 1516 1520 1522 1527 1530 1533 1536 1538 1540 1542 1543 1544 1545 1546 1547 1548 1549 1549 1550 1550 1551 1551 1551 1551 1550 1550 1550 1549 1549 1549 1548 1548 1548 1547
1510 1520 1546 1558 1562 1554 1541 1541 1521 1504 1501 1500 1502 1505 1509 1512 1516 1519 1523 1527 1530 1533 1536 1538 1539 1541 1543 1544 1545 1546 1547 1547 1548 1548 1549 1549 1549 1549 1549 1549 1549 1548 1548 1547 1547 1547 1546 1546 1545
1511 1519 1521 1541 1548 1553 1547 1533 1514 1501 1500 1499 1500 1503 1506 1509 1513 1516 1520 1523 1527 1530 1533 1535 1537 1540 1541 1543 1544 1545 1546 1546 1547 1547 1547 1548 1548 1548 1548 1548 1547 1547 1546 1546 1546 1545 1545 1544 1544
1500 1512 1529 1542 1556 1557 1545 1536 1527 1507 1502 1499 1499 1500 1503 1507 1510 1514 1517 1521 1524 1528 1531 1534 1536 1538 1540 1542 1543 1545 1545 1546 1546 1547 1547 1547 1547 1547 1546 1546 1546 1545 1545 1545 1544 1544 1543 1542 1542
1507 1515 1526 1538 1540 1554 1554 1539 1506 1502 1497 1497 1496 1497 1499 1503 1507 1510 1514 1518 1522 1525 1529 1532 1535 1537 1539 1541 1543 1544 1545 1546 1546 1546 1546 1546 1546 1546 1546 1546 1545 1545 1545 1544 1543 1543 1542 1541 1541
1496 1506 1518 1531 1539 1544 1546 1534 1495 1494 1493 1494 1494 1496 1499 1502 1505 1509 1512 1516 1519 1523 1526 1530 1533 1536 1538 1540 1542 1543 1544 1545 1545 1546 1546 1546 1546 1545 1545 1545 1545 1544 1544 1543 1542 1542 1541 1541 1540